STARLINK-11560, 62917

Orbit data source: Space-Track

STARLINK-11560, 62917 is a payload satellite owned by SpaceX/Seattle (US) in LEO that was launched on Sat, 08 Feb 2025 UTC via an FALCON 9 launch vehicle from the Air Force Eastern Test Range (AFETR). Payload-class satellites include a variety of spacecraft equipped with specific instruments for various scientific and technological missions. These include communications satellites like Starlink; space stations such as the ISS; scientific satellites like the Hubble; Earth observation satellites from companies like Planet Labs, Umbra, and HawkEye 360; GPS; miniature CubeSats for education and research; and military/defense satellites.

Loading next visibility...
Identifier
62917, 2025-027L
Orbit
LEO
Country
Flag of USUS
Related business
Manufacturer
SpaceX/Seattle
Mission
Operational Commercial Communications
Bus & Motor
STARLINK V2MD, Unknown motor
Mass
960 kg wet, ~910 kg dry
Launch date (UTC)
2025-02-08 (8 months ago)
Launch vehicle
FALCON 9
Launch site
Air Force Eastern Test Range (AFETR)
Object type
Payload
Rocket body
Debris
Shape & HBR
Box + 2 Pan, 18.1 m
Radar Cross Section
36.964 m², Medium (>0.1 m² and < 1m²)

Expand to show TLE details & history
Last TLE update: 7 hours ago

TLE from 7 hours ago
0 STARLINK-11560
1 62917U 25027L   25290.95244416  .00185462  00000-0  14136-2 0  9997
2 62917  42.9994 128.0022 0001741 270.9476  89.1193 15.70893654 40707
Epoch: 2025-10-17T22:51Z
TLE epoch observation values (Epoch: 2025-10-17T22:51:31.175Z)
Latitude
0.00004°
Longitude
118.43192°
Altitude
356.095 km
Speed
7.697 km/s
True Right ascension
08h 32m 00s
True Declination
0° 00' 00"
Sunlit
Object was in daylight at epoch
Visualization orbit readout
Latitude
Unknown
Longitude
Unknown
Altitude
Unknown
Speed
Unknown
Apparent Right ascension
Unknown
Apparent Declination
Unknown
Sunlit
N/A
Visualization observer readout
Local Sidereal Time
00:55:45
Azimuth
Unknown
Elevation
Unknown
Doppler factor
Unknown
Orbital elements
Apogee altitude
359.496 km
Perigee altitude
357.151 km
Semi-major axis
6,736.46 km
Eccentricity
0.00017
Inclination
42.9994°
RAAN
128.0022°
Arg. of periapsis
270.9476°
True anomaly
89.13925°
Mean anomaly
89.1193°
Eccentric anomaly
89.12927°
Mean motion
3.9255 °/min
Orbital period
91.71 mins
BSTAR
0.0014136
Loading maneuver chart data...
Computing Atmospheric mass density...
Loading historical data...
Loading historical data...
Loading historical data...
Loading historical data...
Loading historical data...
Loading historical data...
Loading historical data...

Documentation

Showing up to 5 results
|